Weather History for KSTJ - September, 2013

Change the Weather History Date:

Tuesday, September 3, 2013

  Actual Average Record
Temperature  
Mean Temperature 68 °F 71 °F  
Max Temperature 85 °F 83 °F 107 °F (1947)
Min Temperature 51 °F 59 °F 36 °F (1974)
Degree Days  
Heating Degree Days 0 1  
Month to date heating degree days 0 1  
Since 1 July heating degree days 2 6  
Cooling Degree Days 3 7  
Month to date cooling degree days 16 21  
Year to date cooling degree days 1086 1098  
Growing Degree Days 16 (Base 50)    
Moisture  
Dew Point 55 °F    
Average Humidity 70    
Maximum Humidity 100    
Minimum Humidity 40    
Precipitation  
Precipitation 0.00 in 0.14 in 2.27 in (1961)
Month to date precipitation 0.96 0.46  
Year to date precipitation 20.63 26.76  
Sea Level Pressure  
Sea Level Pressure 30.06 in    
Wind  
Wind Speed 1 mph (North)    
Max Wind Speed 8 mph    
Max Gust Speed 15 mph    
Visibility 7 miles    
Events Fog    
T = Trace of Precipitation, MM = Missing Value Source: NWS Daily Summary

Daily Weather History Graph

Daily Weather History Graph

Search for Another Location

Airport or City:

Trip Planner

Search our weather history database for the weather conditions in past years. The results will help you decide how hot, cold, wet, or windy it might be!

Date:

Astronomy

Sep. 03, 2013 Rise Set
Actual Time 6:49 AM CDT 7:47 PM CDT
Civil Twilight 6:22 AM CDT 8:14 PM CDT
Nautical Twilight 5:49 AM CDT 8:47 PM CDT
Astronomical Twilight 5:15 AM CDT 9:21 PM CDT
Moon 5:04 AM CDT 6:34 PM CDT
Length of Visible Light 13h 52m
Length of Day
12h 57m
Waning Crescent, 3% of the Moon is Illuminated
Sep 3
Waning Crescent
Sep 5
New
Sep 12
First Quarter
Sep 19
Full
Sep 26
Last Quarter

Hourly Weather History & Observations

Time (CDT) Temp. Heat Index Dew Point Humidity Pressure Visibility Wind Dir Wind Speed Gust Speed Precip Events Conditions
12:53 AM 59.0 °F - 57.0 °F 93% 30.04 in 10.0 mi Calm Calm - N/A   Clear
1:53 AM 57.0 °F - 55.0 °F 93% 30.04 in 10.0 mi Calm Calm - N/A   Clear
2:53 AM 57.9 °F - 55.9 °F 93% 30.04 in 10.0 mi Calm Calm - N/A   Clear
3:53 AM 55.9 °F - 54.0 °F 93% 30.04 in 10.0 mi Calm Calm - N/A   Clear
4:18 AM 53.6 °F - 51.8 °F 94% 30.05 in 10.0 mi Calm Calm - N/A   Partly Cloudy
4:32 AM 53.6 °F - 53.6 °F 100% 30.06 in 4.0 mi Calm Calm - N/A   Mostly Cloudy
4:37 AM 53.6 °F - 51.8 °F 94% 30.06 in 1.5 mi Calm Calm - N/A   Mostly Cloudy
4:43 AM 53.6 °F - 53.6 °F 100% 30.06 in 0.5 mi Calm Calm - N/A Fog Fog
4:53 AM 54.0 °F - 52.0 °F 93% 30.05 in 0.5 mi Calm Calm - N/A Fog Fog
5:03 AM 53.6 °F - 53.6 °F 100% 30.06 in 1.0 mi Calm Calm - N/A   Mist
5:07 AM 53.6 °F - 53.6 °F 100% 30.06 in 4.0 mi Calm Calm - N/A   Mostly Cloudy
5:32 AM 53.6 °F - 51.8 °F 94% 30.07 in 1.8 mi Calm Calm - N/A   Mostly Cloudy
5:53 AM 53.1 °F - 52.0 °F 96% 30.06 in 2.5 mi Calm Calm - N/A   Overcast
6:00 AM 53.6 °F - 51.8 °F 94% 30.08 in 5.0 mi Calm Calm - N/A   Overcast
6:35 AM 51.8 °F - 51.8 °F 100% 30.09 in 10.0 mi NNW 4.6 mph - N/A   Scattered Clouds
6:53 AM 51.1 °F - 50.0 °F 96% 30.08 in 10.0 mi Calm Calm - N/A   Partly Cloudy
7:07 AM 51.8 °F - 50.0 °F 94% 30.09 in 0.5 mi NNE 3.5 mph - N/A Fog Fog
7:23 AM 53.6 °F - 53.6 °F 100% 30.10 in 1.0 mi Calm Calm - N/A   Mist
7:26 AM 53.6 °F - 53.6 °F 100% 30.10 in 2.0 mi Calm Calm - N/A   Scattered Clouds
7:34 AM 53.6 °F - 53.6 °F 100% 30.10 in 1.2 mi Calm Calm - N/A   Partly Cloudy
7:40 AM 53.6 °F - 53.6 °F 100% 30.11 in 3.0 mi Calm Calm - N/A   Partly Cloudy
7:53 AM 55.9 °F - 55.0 °F 97% 30.10 in 10.0 mi Calm Calm - N/A   Clear
8:53 AM 64.9 °F - 57.9 °F 78% 30.10 in 10.0 mi Calm Calm - N/A   Clear
9:53 AM 69.1 °F - 57.9 °F 68% 30.11 in 10.0 mi Calm Calm - N/A   Clear
10:53 AM 73.0 °F - 57.9 °F 59% 30.11 in 10.0 mi Calm Calm - N/A   Clear
11:53 AM 77.0 °F - 55.9 °F 48% 30.10 in 10.0 mi West 3.5 mph - N/A   Clear
12:53 PM 79.0 °F - 55.9 °F 45% 30.09 in 10.0 mi Variable 3.5 mph - N/A   Clear
1:53 PM 82.0 °F 81.6 °F 55.9 °F 41% 30.06 in 10.0 mi Calm Calm - N/A   Clear
2:53 PM 82.0 °F 81.4 °F 55.0 °F 39% 30.04 in 10.0 mi Variable 3.5 mph - N/A   Clear
3:53 PM 82.9 °F 82.1 °F 55.9 °F 39% 30.03 in 10.0 mi Calm Calm - N/A   Clear
4:53 PM 82.9 °F 82.0 °F 55.0 °F 38% 30.03 in 10.0 mi Calm Calm - N/A   Clear
5:53 PM 82.9 °F 83.3 °F 61.0 °F 47% 30.03 in 10.0 mi NNE 3.5 mph - N/A   Clear
6:53 PM 79.0 °F - 61.0 °F 54% 30.03 in 10.0 mi North 3.5 mph - N/A   Clear
7:53 PM 71.1 °F - 64.0 °F 78% 30.03 in 10.0 mi North 4.6 mph - N/A   Clear
8:53 PM 68.0 °F - 62.1 °F 81% 30.03 in 10.0 mi Calm Calm - N/A   Clear
9:53 PM 64.0 °F - 60.1 °F 87% 30.04 in 10.0 mi Calm Calm - N/A   Clear
10:53 PM 64.0 °F - 61.0 °F 90% 30.04 in 10.0 mi Calm Calm - N/A   Clear
11:53 PM 61.0 °F - 57.9 °F 90% 30.04 in 10.0 mi Calm Calm - N/A   Clear